Home > Weather > Pudukkottai > Past weeks

Flag for India Weather for the Past 2 Weeks in Pudukkottai, Tamil Nadu, India

Now
90 °F

Haze.


Feels Like: 98 °F
Forecast: 82 / 105 °F
Wind: 7 mph from West

Location: Tiruchchirapalli

Current Time: May 2, 2016 at 9:26:02 AM

Latest Report: May 2, 2016 at 8:30 AM


Visibility: 3 mi

Pressure: 29.83 "Hg

Humidity: 59%

Dew Point: 73 °F

Location of PudukkottaiLocation

Historic Weather in Pudukkottai — Graph

°F

Pudukkottai Temperature Yesterday

Maximum temperature yesterday: 104 °F (at 2:30 PM)
Minimum temperature yesterday: 82 °F (at 3:30 AM)
Average temperature yesterday: 92 °F

High & Low Weather Summary for the Past Weeks

 TemperatureHumidityPressure
High108 °F (Apr 22, 3:00 PM)84% (Apr 18, 6:00 AM)29.89 "Hg (Apr 18, 6:00 AM)
Low82 °F (Apr 18, 6:00 AM)28% (Apr 29, 3:30 PM)29.56 "Hg (Apr 24, 3:00 PM)
Average93 °F57%29.75 "Hg
* Reported Apr 17 7:30 AM — May 2 8:00 AM, Pudukkottai, Weather by CustomWeather, © 2016

Note: Actual official high and low records may vary slightly from our data, if they occured in-between our weather recording intervals... More about our weather records

Advertising

Pudukkottai Weather History for the Previous 24 Hours

Scroll right to see more
 ConditionsComfort  
Time TempWeatherWind HumidityBarometerVisibility
8:00 AM
Mon, May 2
88 °FHaze.6 mph66%29.83 "Hg3 mi
7:30 AM86 °FHaze.3 mph70%29.80 "Hg3 mi
7:00 AM84 °FHaze.6 mph74%29.80 "Hg3 mi
6:00 AM82 °FFog.5 mph79%29.77 "Hg3 mi
5:30 AM82 °FFog.No wind79%29.77 "Hg3 mi
5:00 AM84 °FHaze.No wind74%29.77 "Hg3 mi
4:30 AM84 °FHaze.No wind74%29.77 "Hg3 mi
4:00 AM84 °FHaze.No wind74%29.77 "Hg3 mi
3:30 AM84 °FHaze.No wind74%29.77 "Hg3 mi
3:00 AM84 °FHaze.No wind74%29.77 "Hg3 mi
2:30 AM84 °FHaze.No wind74%29.77 "Hg3 mi
2:00 AM84 °FPassing clouds.No wind74%29.77 "Hg4 mi
1:30 AM86 °FPassing clouds.No wind70%29.77 "Hg4 mi
1:00 AM86 °FPassing clouds.3 mph70%29.77 "Hg4 mi
12:30 AM86 °FPassing clouds.3 mph70%29.77 "Hg4 mi
12:00 AM88 °FPassing clouds.3 mph66%29.77 "Hg4 mi
11:30 PM
Sun, May 1
88 °FPassing clouds.5 mph66%29.77 "Hg4 mi
11:00 PM88 °FPassing clouds.5 mph70%29.80 "Hg4 mi
10:30 PM88 °FPassing clouds.6 mph66%29.80 "Hg4 mi
10:00 PM90 °FPassing clouds.6 mph67%29.80 "Hg4 mi
9:30 PM90 °FPassing clouds.7 mph67%29.77 "Hg4 mi
9:00 PM90 °FPassing clouds.9 mph63%29.77 "Hg4 mi
8:30 PM91 °FPassing clouds.9 mph59%29.74 "Hg4 mi
8:00 PM91 °FPassing clouds.12 mph56%29.74 "Hg4 mi
7:30 PM93 °FPassing clouds.10 mph53%29.71 "Hg4 mi
7:00 PM93 °FPassing clouds.9 mph53%29.71 "Hg4 mi
6:30 PM95 °FPassing clouds.10 mph47%29.68 "Hg5 mi
6:00 PM99 °FPassing clouds.10 mph39%29.68 "HgN/A
5:30 PM100 °FPassing clouds.9 mph35%29.65 "HgN/A
5:00 PM102 °FPassing clouds.12 mph31%29.65 "HgN/A
4:30 PM102 °FPassing clouds.3 mph31%29.65 "HgN/A
4:00 PM104 °FPassing clouds.No wind31%29.65 "HgN/A
3:30 PM104 °FPassing clouds.6 mph31%29.65 "HgN/A
3:00 PM104 °FPassing clouds.No wind31%29.68 "HgN/A
2:30 PM104 °FPassing clouds.3 mph33%29.68 "HgN/A
2:00 PM102 °FPassing clouds.2 mph37%29.68 "HgN/A
1:30 PM102 °FPassing clouds.2 mph37%29.71 "HgN/A
1:00 PM100 °FPassing clouds.2 mph40%29.74 "HgN/A
12:30 PM100 °FPassing clouds.3 mph40%29.74 "HgN/A
12:00 PM99 °FPassing clouds.3 mph39%29.77 "HgN/A
11:30 AM99 °FPassing clouds.2 mph39%29.80 "HgN/A
11:00 AM97 °FPassing clouds.2 mph47%29.80 "HgN/A
10:00 AM95 °FPassing clouds.2 mph50%29.83 "Hg5 mi
9:30 AM93 °FPassing clouds.2 mph53%29.83 "Hg4 mi
9:00 AM91 °FHaze.No wind56%29.83 "Hg3 mi
Weather by CustomWeather, © 2016

See weather overviewHow to use our weather pages